This is the latest recevied weather packets stored in our database for station/object K5RWS. If no packets are shown the sender has not sent any weather packets the latest 10 day(s).
| Time | Temp. | Humidity | Pressure | Rain* | Wind** | Luminosity | Snow |
|---|---|---|---|---|---|---|---|
| 1777999273 | 13.89° C | 42% | 1014.3 hPa | 0 mm | - | 336 W/m² | - |
| 1777998972 | 13.89° C | 43% | 1014.5 hPa | 0 mm | - | 307 W/m² | - |
| 1777998668 | 13.33° C | 44% | 1014.3 hPa | 0 mm | - | 354 W/m² | - |
| 1777998366 | 13.33° C | 44% | 1014.5 hPa | 0 mm | - | 340 W/m² | - |
| 1777998064 | 13.33° C | 45% | 1014.5 hPa | 0 mm | - | 386 W/m² | - |
| 1777997760 | 12.78° C | 45% | 1014.5 hPa | 0 mm | - | 282 W/m² | - |
| 1777997458 | 13.33° C | 45% | 1014.8 hPa | 0 mm | - | 252 W/m² | - |
| 1777997155 | 12.78° C | 46% | 1014.8 hPa | 0 mm | - | 260 W/m² | - |
| 1777996853 | 12.22° C | 49% | 1014.7 hPa | 0 mm | - | 248 W/m² | - |
| 1777996548 | 12.78° C | 48% | 1014.9 hPa | 0 mm | - | 169 W/m² | - |
| 1777996245 | 12.78° C | 46% | 1015 hPa | 0 mm | - | 157 W/m² | - |
| 1777995941 | 12.78° C | 48% | 1015 hPa | 0 mm | - | 176 W/m² | - |
| 1777995637 | 12.22° C | 49% | 1014.9 hPa | 0 mm | - | 154 W/m² | - |
| 1777995335 | 12.22° C | 50% | 1015 hPa | 0 mm | - | 183 W/m² | - |
| 1777995032 | 12.22° C | 50% | 1015.2 hPa | 0 mm | - | 184 W/m² | - |
| 1777994729 | 11.67° C | 51% | 1015.4 hPa | 0 mm | - | 168 W/m² | - |
| 1777994424 | 12.22° C | 52% | 1015.3 hPa | 0 mm | - | 185 W/m² | - |
| 1777994120 | 11.67° C | 54% | 1015.3 hPa | 0 mm | - | 174 W/m² | - |
| 1777993817 | 11.67° C | 56% | 1015.2 hPa | 0 mm | - | 150 W/m² | - |
| 1777993514 | 11.67° C | 58% | 1015.3 hPa | 0 mm | - | 131 W/m² | - |
| 1777993210 | 11.67° C | 59% | 1015 hPa | 0 mm | - | 149 W/m² | - |
| 1777992906 | 11.67° C | 61% | 1015.4 hPa | 0 mm | - | 105 W/m² | - |
| 1777992604 | 11.67° C | 61% | 1015.3 hPa | 0 mm | - | 117 W/m² | - |
| 1777992302 | 11.67° C | 61% | 1015.2 hPa | 0 mm | - | 108 W/m² | - |
| 1777991999 | 12.22° C | 56% | 1015.5 hPa | 0 mm | - | 79 W/m² | - |
* Rain latest hour (hover to see other rain measurements)
** Current wind speed in m/s (hover to see current wind gust speed)